Hourly Data Report for May 18, 2022

TORONTO CITY
ONTARIO
Current Station Operator: ECCC - MSC

43°40'00.000" N
79°24'00.000" W
112.50 m
6158355
71508
XTO

Download Data

Hourly Data (May 2022)
Hourly Data Report for May 18, 2022
TIME
LST
Temp Definition
°C
Dew Point Definition
°C
Rel Hum Definition
%
Precip. Amount Definition
mm

Wind Dir Definition
10's deg

Wind Spd Definition
km/h
Visibility Definition
km
Stn Press Definition
kPa
Hmdx Definition


Wind Chill Definition


Weather Definition


00:00 10.0 3.9 66 0.0       100.28     LegendNANA
01:00 9.4 3.8 68 0.0       100.32     LegendNANA
02:00 8.7 3.7 71 0.0       100.33     LegendNANA
03:00 8.6 3.5 71 0.0       100.32     LegendNANA
04:00 8.0 3.3 72 0.0       100.29     LegendNANA
05:00 7.9 3.2 72 0.0       100.34     LegendNANA
06:00 9.3 3.4 66 0.0       100.37     LegendNANA
07:00 10.8 3.9 62 0.0       100.46     LegendNANA
08:00 13.1 2.6 49 0.0       100.45     LegendNANA
09:00 13.7 1.4 43 0.0       100.48     LegendNANA
10:00 13.8 0.0 39 0.0       100.43     LegendNANA
11:00 13.2 2.7 49 0.0       100.40     LegendNANA
12:00 13.3 1.8 46 0.0       100.34     LegendNANA
13:00 13.5 1.7 45 0.0       100.23     LegendNANA
14:00 12.2 2.6 52 0.0       100.19     LegendNANA
15:00 12.5 3.5 54 0.0       100.10     LegendNANA
16:00 12.5 2.7 51 0.0       99.96     LegendNANA
17:00 11.9 2.6 53 0.0       99.83     LegendNANA
18:00 11.2 1.6 52 0.0       99.76     LegendNANA
19:00 11.6 1.8 51 0.0       99.72     LegendNANA
20:00 11.4 1.7 51 0.0       99.68     LegendNANA
21:00 11.3 1.7 51 0.0       99.72     LegendNANA
22:00 11.6 2.2 52 0.0       99.68     LegendNANA
23:00 11.3 2.4 54 0.0       99.58     LegendNANA

Notes on Data Quality.

Legend

  • E = Estimated
  • M = Missing
  • NA = Not Available*
  • [empty] = Indicates an unobserved value
Date modified: